Regional Weather Roundup
Issued by NWS Kansas City/Pleasant Hill, MO

Current Version | Previous Version | Text Only | Print | Product List | Glossary On
Versions: 1 2 3 4 5 6 7 8 9 10 11 12 13 14 15 16 17 18 19 20 21 22 23 24 25 26 27 28 29 30 31 32 33 34 35 36 37 38 39 40 41 42 43 44 45 46 47 48 49 50
000 ASUS43 KEAX 041315 RWREAX WEATHER ROUNDUP FOR EASTERN KANSAS AND NORTHWEST MISSOURI NATIONAL WEATHER SERVICE KANSAS CITY/PLEASANT HILL MO 700 AM CST THU MAR 04 2021 KSZ040-057-103>105-MOZ028-029-037-043-041400- ...KANSAS CITY METROPOLITAN AREA... CITY SKY/WX TMP DP RH WIND PRES REMARKS K.C. INTL CLEAR 41 28 60 SE3 30.12R K.C. DOWNTOWN CLEAR 32 28 85 N3 30.13R LEES SUMMIT CLEAR 44 25 47 CALM 30.12R OLATHE - IXD CLEAR 34 25 69 S3 30.13R OLATHE - OJC CLEAR 38 27 64 CALM 30.12R LAWRENCE CLEAR 28 23 81 CALM 30.12R $$ MOZ001>008-011>017-020>025-030>033-038>040-044>046-053-054-041400- ...NORTHERN AND CENTRAL MISSOURI... CITY SKY/WX TMP DP RH WIND PRES REMARKS ST. JOSEPH CLEAR 30 25 81 CALM 30.13S MOSBY CLEAR 28 27 93 CALM 30.14R HARRISONVILLE N/A 32 30 93 CALM 30.15S WHITEMAN AFB CLEAR 33 27 79 CALM 30.09R CLINTON CLEAR 32 28 86 S5 30.14R WCI 27 SEDALIA CLEAR 38 29 70 S5 30.14S WCI 34 CHILLICOTHE N/A 32 29 88 CALM 30.16R MOBERLY CLEAR 36 32 87 E7 30.17R WCI 30 KIRKSVILLE CLEAR 36 35 96 E5 30.18S WCI 32 $$ MOZ041-047>049-056>058-063>065-088>090-097-041400- ...EASTERN AND SOUTHERN MISSOURI... CITY SKY/WX TMP DP RH WIND PRES REMARKS ST. LOUIS INTL CLEAR 41 34 76 E5 30.19R SPIRIT OF STL CLEAR 32 29 88 CALM 30.18R COLUMBIA CLEAR 43 32 65 E6 30.15R JEFFERSON CITY CLEAR 32 26 78 E3 30.17R MEXICO CLEAR 36 32 87 E5 30.16S WCI 32 HANNIBAL CLEAR 37 32 81 E6 30.19R WCI 33 ROLLA CLEAR 36 26 67 SW5 30.16R WCI 32 LEBANON CLEAR 45 28 53 W6 30.17R OSAGE BEACH CLEAR 32 28 85 CALM 30.17R SPRINGFIELD CLEAR 32 27 81 SE5 30.14S WCI 27 BRANSON CLEAR 46 28 49 CALM 30.17R JOPLIN CLEAR 37 30 75 CALM 30.15S WEST PLAINS CLEAR 41 27 57 NW5 30.16S SIKESTON CLEAR 36 36 100 CALM 30.16R $$ IAZ060-094-KSZ022-034>040-054-083-096-NEZ052-066-093-041400- ...KANSAS...SOUTHEAST NEBRASKA AND IOWA... CITY SKY/WX TMP DP RH WIND PRES REMARKS TOPEKA CLEAR 30 23 75 CALM 30.12R MANHATTAN CLEAR 26 20 77 CALM 30.11S EMPORIA CLEAR 37 27 67 CALM 30.11R OTTAWA FAIR 30 28 93 CALM 30.12R CHANUTE CLEAR 35 28 75 SE3 30.13R SALINA CLEAR 30 23 75 CALM 30.09S WICHITA CLEAR 35 28 75 SE3 30.09R OMAHA CLEAR 30 28 92 CALM 30.14R LINCOLN CLEAR 26 23 88 NW3 30.12R FALLS CITY CLEAR 34 30 85 SE3 30.11S LAMONI CLEAR 36 31 82 E6 30.15R WCI 31 DES MOINES CLEAR 34 30 85 E6 30.19F WCI 29 $$

USA.gov is the U.S. government's official web portal to all federal, state and local government web resources and services.